Sitka, AK

10:37 AM AKDT on September 26, 2016 (GMT -0800)
Sitka Rocky Gutierrez

Weather History for PASI - July, 2012

Change the Weather History Date:

Friday, July 27, 2012

  Actual Average Record
Temperature  
Mean Temperature 54 °F -  
Max Temperature 55 °F 62 °F 79 °F (1956)
Min Temperature 53 °F 52 °F 33 °F (1996)
Degree Days  
Heating Degree Days 11    
Growing Degree Days 4 (Base 50)    
Moisture  
Dew Point 54 °F    
Average Humidity 99    
Maximum Humidity 100    
Minimum Humidity 93    
Precipitation  
Precipitation 0.57 in - - ()
Sea Level Pressure  
Sea Level Pressure 29.94 in    
Wind  
Wind Speed 5 mph (West)    
Max Wind Speed 13 mph    
Max Gust Speed -    
Visibility 6 miles    
Events Rain    
Averages and records for this station are not official NWS values.
T = Trace of Precipitation, MM = Missing Value Source: NWS Daily Summary

Daily Weather History Graph

Daily Weather History Graph

Search for Another Location

Airport or City:

Trip Planner

Search our weather history database for the weather conditions in past years. The results will help you decide how hot, cold, wet, or windy it might be!

Date:

Astronomy

Jul. 27, 2012 Rise Set
Actual Time 4:51 AM AKDT 9:23 PM AKDT
Civil Twilight 3:58 AM AKDT 10:15 PM AKDT
Nautical Twilight 2:29 AM AKDT 11:42 PM AKDT
Astronomical Twilight Sun does not set Sun does not set
Moon 4:34 PM AKDT (7/27) No Moon Set
Length of Visible Light 18h 17m
Length of Day
16h 31m
Waxing Gibbous, 66% of the Moon is Illuminated
Jul 27
Waxing Gibbous
Aug 1
Full
Aug 9
Last Quarter
Aug 17
New
Aug 24
First Quarter

Hourly Weather History & Observations

Time (AKDT) Temp. Dew Point Humidity Pressure Visibility Wind Dir Wind Speed Gust Speed Precip Events Conditions
12:53 AM 55.9 °F 55.0 °F 97% 29.90 in 10.0 mi WNW 6.9 mph - N/A   Overcast
1:53 AM 55.0 °F 55.0 °F 100% 29.90 in 8.0 mi WNW 5.8 mph - N/A   Overcast
2:53 AM 55.0 °F 55.0 °F 100% 29.89 in 9.0 mi West 4.6 mph - N/A   Overcast
3:53 AM 55.0 °F 55.0 °F 100% 29.89 in 3.0 mi NW 4.6 mph - N/A   Overcast
4:22 AM 53.6 °F 53.6 °F 100% 29.89 in 2.0 mi NW 3.5 mph - 0.00 in Rain Light Rain
4:50 AM 53.6 °F 53.6 °F 100% 29.89 in 4.0 mi NW 5.8 mph - 0.01 in Rain Light Rain
4:53 AM 54.0 °F 54.0 °F 100% 29.89 in 5.0 mi NW 5.8 mph - 0.01 in Rain Light Rain
5:53 AM 54.0 °F 54.0 °F 100% 29.89 in 5.0 mi NW 5.8 mph - 0.02 in Rain Light Rain
6:11 AM 53.6 °F 53.6 °F 100% 29.89 in 4.0 mi NW 4.6 mph - 0.02 in Rain Light Rain
6:31 AM 53.6 °F 53.6 °F 100% 29.90 in 2.0 mi Calm Calm - 0.07 in Rain Rain
6:44 AM 53.6 °F 53.6 °F 100% 29.90 in 1.8 mi Calm Calm - 0.11 in Rain Rain
6:53 AM 54.0 °F 54.0 °F 100% 29.90 in 1.5 mi Calm Calm - 0.16 in Rain Heavy Rain
7:11 AM 53.6 °F 53.6 °F 100% 29.89 in 3.0 mi North 5.8 mph - 0.06 in Rain Rain
7:26 AM 53.6 °F 53.6 °F 100% 29.88 in 10.0 mi West 4.6 mph - 0.07 in Rain Light Rain
7:41 AM 53.6 °F 53.6 °F 100% 29.88 in 10.0 mi WNW 3.5 mph - 0.07 in   Overcast
7:53 AM 54.0 °F 54.0 °F 100% 29.89 in 5.0 mi NW 9.2 mph - 0.07 in   Overcast
8:05 AM 53.6 °F 53.6 °F 100% 29.90 in 2.5 mi Variable 6.9 mph - 0.04 in Rain Rain
8:12 AM 53.6 °F 53.6 °F 100% 29.91 in 3.0 mi SSW 6.9 mph - 0.06 in Rain Rain
8:25 AM 53.6 °F 53.6 °F 100% 29.91 in 5.0 mi SW 12.7 mph - 0.07 in Rain Light Rain
8:41 AM 53.6 °F 53.6 °F 100% 29.91 in 1.8 mi SW 9.2 mph - 0.11 in Rain Rain
8:53 AM 53.1 °F 53.1 °F 100% 29.92 in 2.0 mi SW 4.6 mph - 0.15 in Rain Rain
9:16 AM 53.6 °F 53.6 °F 100% 29.90 in 4.0 mi West 4.6 mph - 0.05 in Rain Light Rain
9:53 AM 53.1 °F 53.1 °F 100% 29.93 in 10.0 mi SSW 8.1 mph - 0.07 in Rain Light Rain
10:09 AM 53.6 °F 53.6 °F 100% 29.92 in 10.0 mi SSW 6.9 mph - N/A   Overcast
10:24 AM 53.6 °F 53.6 °F 100% 29.92 in 10.0 mi WSW 4.6 mph - 0.00 in Rain Light Rain
10:37 AM 53.6 °F 53.6 °F 100% 29.92 in 8.0 mi SSW 9.2 mph - 0.01 in Rain Light Rain
10:53 AM 53.1 °F 53.1 °F 100% 29.94 in 5.0 mi SSW 9.2 mph - 0.01 in Rain Light Rain
11:29 AM 53.6 °F 53.6 °F 100% 29.94 in 1.8 mi SSW 8.1 mph - 0.02 in Rain Light Rain
11:38 AM 53.6 °F 53.6 °F 100% 29.95 in 1.8 mi SSW 6.9 mph - 0.04 in Rain Light Rain
11:53 AM 54.0 °F 54.0 °F 100% 29.95 in 3.0 mi SW 6.9 mph - 0.04 in Rain Light Rain
12:03 PM 53.6 °F 53.6 °F 100% 29.95 in 5.0 mi SSW 5.8 mph - 0.01 in Rain Light Rain
12:53 PM 54.0 °F 54.0 °F 100% 29.97 in 10.0 mi SSW 6.9 mph - 0.01 in   Overcast
1:53 PM 53.1 °F 53.1 °F 100% 29.98 in 4.0 mi WSW 4.6 mph - N/A   Overcast
2:53 PM 53.1 °F 53.1 °F 100% 29.99 in 4.0 mi Calm Calm - 0.00 in Rain Light Rain
3:00 PM 53.6 °F 53.6 °F 100% 29.98 in 8.0 mi Calm Calm - 0.00 in Rain Light Rain
3:53 PM 54.0 °F 54.0 °F 100% 29.99 in 6.0 mi Calm Calm - 0.00 in   Overcast
4:53 PM 54.0 °F 53.1 °F 97% 29.99 in 9.0 mi NW 4.6 mph - 0.01 in   Overcast
5:53 PM 54.0 °F 53.1 °F 97% 29.99 in 5.0 mi NW 4.6 mph - 0.00 in Rain Light Rain
6:08 PM 53.6 °F 53.6 °F 100% 29.99 in 2.5 mi NW 3.5 mph - 0.01 in Rain Light Rain
6:16 PM 53.6 °F 53.6 °F 100% 29.99 in 6.0 mi NNW 5.8 mph - 0.01 in Rain Light Rain
6:53 PM 53.1 °F 53.1 °F 100% 29.99 in 6.0 mi NNW 4.6 mph - 0.02 in Rain Light Rain
7:00 PM 53.6 °F 53.6 °F 100% 29.99 in 4.0 mi NNW 4.6 mph - 0.00 in Rain Light Rain
7:53 PM 53.1 °F 52.0 °F 96% 30.00 in 10.0 mi NW 8.1 mph - 0.00 in   Overcast
8:00 PM 53.6 °F 51.8 °F 94% 29.99 in 10.0 mi NW 6.9 mph - N/A   Overcast
8:53 PM 53.1 °F 52.0 °F 96% 30.00 in 10.0 mi North 6.9 mph - N/A   Overcast
9:53 PM 54.0 °F 52.0 °F 93% 30.02 in 10.0 mi Calm Calm - N/A   Overcast
10:53 PM 53.1 °F 53.1 °F 100% 30.03 in 10.0 mi Calm Calm - N/A   Overcast
11:53 PM 53.1 °F 52.0 °F 96% 30.03 in 10.0 mi Calm Calm - N/A   Overcast